Tracking 23099 objects as of 14-May-2021
HD Live streaming from Space Station
objects crossing your sky now

DICE 1

Track DICE 1 now!
10-day predictions
DICE 1 is classified as:


NORAD ID: 37851
Int'l Code: 2011-061B
Perigee: 435.5 km
Apogee: 679.6 km
Inclination: 101.7 °
Period: 95.7 minutes
Semi major axis: 6928 km
RCS: 0.0809 m2 (small)
Launch date: October 28, 2011
Source: United States (US)
Launch site: AIR FORCE WESTERN TEST RANGE (AFWTR)
aabbcc
Your satellite tracking list
Your tracking list is empty




NASA's NSSDC Master Catalog

Two Line Element Set (TLE):
1 37851U 11061B   21133.66366529  .00001605  00000-0  87210-4 0  9990
2 37851 101.7366  31.5404 0176130 205.0219 154.2380 15.05358354520867
Source of the keplerian elements: AFSPC